Spring Lake, NC

3:22 AM EDT on September 27, 2016 (GMT -0400)
Pope Field Airport

Weather History for KPOB - September, 2013

Change the Weather History Date:

Wednesday, September 18, 2013

  Actual Average Record
Temperature  
Mean Temperature 62 °F -  
Max Temperature 76 °F 84 °F 93 °F (2005)
Min Temperature 50 °F 63 °F 47 °F (1990)
Degree Days  
Heating Degree Days 2    
Growing Degree Days 12 (Base 50)    
Moisture  
Dew Point 52 °F    
Average Humidity 72    
Maximum Humidity 97    
Minimum Humidity 39    
Precipitation  
Precipitation 0.03 in - - ()
Sea Level Pressure  
Sea Level Pressure 30.26 in    
Wind  
Wind Speed 4 mph (NE)    
Max Wind Speed 12 mph    
Max Gust Speed -    
Visibility 10 miles    
Events Rain    
Averages and records for this station are not official NWS values.
T = Trace of Precipitation, MM = Missing Value Source: NWS Daily Summary

Daily Weather History Graph

Daily Weather History Graph

Search for Another Location

Airport or City:

Trip Planner

Search our weather history database for the weather conditions in past years. The results will help you decide how hot, cold, wet, or windy it might be!

Date:

Astronomy

Sep. 18, 2013 Rise Set
Actual Time 7:01 AM EDT 7:18 PM EDT
Civil Twilight 6:35 AM EDT 7:43 PM EDT
Nautical Twilight 6:06 AM EDT 8:13 PM EDT
Astronomical Twilight 5:35 AM EDT 8:43 PM EDT
Moon 6:41 PM EDT (9/18) 6:02 AM EDT (9/18)
Length of Visible Light 13h 07m
Length of Day
12h 17m
Waxing Gibbous, 99% of the Moon is Illuminated
Sep 18
Waxing Gibbous
Sep 19
Full
Sep 26
Last Quarter
Oct 4
New
Oct 11
First Quarter

Hourly Weather History & Observations

Time (EDT) Temp. Dew Point Humidity Pressure Visibility Wind Dir Wind Speed Gust Speed Precip Events Conditions
12:58 AM 58.1 °F 52.9 °F 83% 30.30 in 10.0 mi ENE 3.5 mph - N/A   Clear
1:58 AM 55.8 °F 52.5 °F 89% 30.30 in 10.0 mi NE 4.6 mph - N/A   Clear
2:58 AM 55.9 °F 52.7 °F 89% 30.29 in 10.0 mi ENE 2.3 mph - N/A   Clear
3:58 AM 55.4 °F 52.3 °F 89% 30.28 in 10.0 mi NNE 1.2 mph - N/A   Clear
4:58 AM 52.5 °F 51.6 °F 97% 30.28 in 10.0 mi Calm Calm - N/A   Clear
5:58 AM 52.2 °F 50.7 °F 95% 30.28 in 10.0 mi NE 2.3 mph - N/A   Clear
6:58 AM 50.4 °F 49.3 °F 96% 30.29 in 10.0 mi Calm Calm - N/A   Clear
7:58 AM 53.6 °F 50.4 °F 89% 30.31 in 10.0 mi NNE 4.6 mph - N/A   Clear
8:55 AM 60.8 °F 50.0 °F 68% 30.31 in 10.0 mi NE 8.1 mph - N/A   Partly Cloudy
9:30 AM 62.6 °F 51.8 °F 68% 30.30 in 6.0 mi ENE 8.1 mph - N/A Rain Light Rain
9:31 AM 62.6 °F 51.8 °F 68% 30.30 in 10.0 mi ENE 8.1 mph - N/A   Clear
9:58 AM 63.5 °F 52.5 °F 67% 30.31 in 10.0 mi ENE 10.4 mph - 0.03 in   Clear
10:58 AM 67.6 °F 53.4 °F 60% 30.31 in 10.0 mi ENE 8.1 mph - N/A   Clear
11:58 AM 70.0 °F 52.7 °F 54% 30.29 in 10.0 mi East 5.8 mph - N/A   Clear
12:58 PM 72.3 °F 49.8 °F 45% 30.27 in 10.0 mi ESE 5.8 mph - N/A   Clear
1:58 PM 74.1 °F 48.0 °F 40% 30.24 in 10.0 mi ENE 11.5 mph - N/A   Clear
2:58 PM 75.7 °F 49.6 °F 40% 30.22 in 10.0 mi East 8.1 mph - N/A   Clear
3:58 PM 75.9 °F 50.0 °F 40% 30.20 in 10.0 mi NNE 8.1 mph - N/A   Clear
4:58 PM 75.4 °F 48.9 °F 39% 30.19 in 10.0 mi ENE 5.8 mph - N/A   Clear
5:58 PM 73.8 °F 50.2 °F 43% 30.19 in 10.0 mi NE 8.1 mph - N/A   Clear
6:58 PM 67.3 °F 54.1 °F 63% 30.19 in 10.0 mi NNE 3.5 mph - N/A   Clear
7:58 PM 61.9 °F 55.9 °F 81% 30.19 in 10.0 mi NNE 1.2 mph - N/A   Clear
8:58 PM 58.6 °F 55.8 °F 90% 30.20 in 10.0 mi NNE 2.3 mph - N/A   Clear
9:58 PM 57.0 °F 54.9 °F 92% 30.21 in 10.0 mi NE 1.2 mph - N/A   Clear
10:58 PM 55.9 °F 54.0 °F 93% 30.21 in 10.0 mi Calm Calm - N/A   Clear
11:58 PM 55.2 °F 52.3 °F 90% 30.21 in 10.0 mi Calm Calm - N/A   Scattered Clouds